FW9692 Weather Reports


time (UTC)temp
F
wind
direction
speed
knots
gust
knots
rain 1hr
in
rain 24hr
in
rain mn
in
humidity
%
barometer
mb
20260506184504 77 293 25.2 30.4 0.00 0.00 0.00 20 1000.9
20260506183109 77 305 14.8 28.7 0.00 0.00 0.00 23 1001.0
20260506181604 77 275 22.6 29.5 0.00 0.00 0.00 21 1000.9
20260506180059 75 279 9.6 13.9 0.00 0.00 0.00 24 1001.3
20260506174543 75 250 2.6 7.0 0.00 0.00 0.00 29 1001.7
20260506173045 74 182 7.0 10.4 0.00 0.00 0.00 29 1001.7
20260506171539 73 26 0.9 5.2 0.00 0.00 0.00 30 1001.9
20260506170044 72 185 0.9 11.3 0.00 0.00 0.00 30 1001.8
20260506164555 71 33 7.8 11.3 0.00 0.00 0.00 33 1001.8
20260506163042 70 346 8.7 13.0 0.00 0.00 0.00 33 1001.8
20260506161537 70 323 7.0 12.2 0.00 0.00 0.00 34 1001.7
20260506160037 70 42 4.3 9.6 0.00 0.00 0.00 34 1001.8
20260506154542 69 27 6.1 11.3 0.00 0.00 0.00 34 1001.8
20260506153035 69 341 9.6 12.2 0.00 0.00 0.00 33 1001.8
20260506151537 69 16 9.6 15.6 0.00 0.00 0.00 32 1001.6
20260506150033 70 18 9.6 13.9 0.00 0.00 0.00 29 1001.4
20260506144536 69 346 10.4 13.9 0.00 0.00 0.00 29 1001.3
20260506143039 69 336 4.3 8.7 0.00 0.00 0.00 30 1001.4
20260506141541 68 310 6.1 10.4 0.00 0.00 0.00 32 1001.4
20260506140036 67 269 7.8 10.4 0.00 0.00 0.00 31 1001.2
20260506134524 67 265 7.8 10.4 0.00 0.00 0.00 34 1001.2
20260506133021 67 266 9.6 12.2 0.00 0.00 0.00 30 1000.9
20260506131520 67 269 9.6 12.2 0.00 0.00 0.00 30 1000.8
20260506130018 68 287 7.0 8.7 0.00 0.00 0.00 28 1000.6
20260506124508 68 281 7.0 9.6 0.00 0.00 0.00 28 1000.5
20260506123007 68 268 7.8 10.4 0.00 0.00 0.00 29 1000.3
20260506121506 67 279 8.7 11.3 0.00 0.00 0.00 30 999.8
20260506120004 67 279 8.7 12.2 0.00 0.00 0.00 30 999.4
20260506114503 68 270 9.6 13.9 0.00 0.00 0.00 29 999.3
20260506113002 68 267 11.3 13.0 0.00 0.00 0.00 29 999.2
20260506111559 68 269 9.6 11.3 0.00 0.00 0.00 28 999.1
20260506110113 68 268 9.6 11.3 0.00 0.00 0.00 28 999.1
20260506104526 68 257 7.0 9.6 0.00 0.00 0.00 28 999.0
20260506103033 69 275 8.7 11.3 0.00 0.00 0.00 27 998.7
20260506101509 69 277 13.0 18.2 0.00 0.00 0.00 26 998.5
20260506100006 70 279 15.6 20.0 0.00 0.00 0.00 25 998.2
20260506094603 70 277 15.6 20.0 0.00 0.00 0.00 25 998.2
20260506093054 70 280 13.9 17.4 0.00 0.00 0.00 27 998.0
20260506091551 0 0.0 0.0 0.00 0.00 0.00 998.1
20260506090046 0 0.0 0.0 0.00 0.00 0.00 997.9
20260506084611 0 0.0 0.0 0.00 0.00 0.00 997.8
20260506083038 0 0.0 0.0 0.00 0.00 0.00 997.9
20260506081539 0 0.0 0.0 0.00 0.00 0.00 997.9
20260506073020 0 0.0 0.0 0.00 0.00 0.00 997.9
20260506071511 0 0.0 0.0 0.00 0.00 0.00 997.8
20260506061516 70 244 7.0 9.6 0.00 0.00 0.00 42 997.6
20260506044508 74 270 3.5 7.0 0.00 0.00 0.00 36 997.1
20260506043008 73 225 2.6 4.3 0.00 0.00 0.00 37 996.9
20260506041507 73 229 2.6 6.1 0.00 0.00 0.00 36 996.7
20260506040006 74 284 6.1 7.8 0.00 0.00 0.00 35 996.6
20260506034504 74 286 5.2 7.0 0.00 0.00 0.00 35 996.6
20260506033004 74 294 3.5 7.8 0.00 0.00 0.00 35 996.2
20260506031505 74 307 6.1 10.4 0.00 0.00 0.00 35 996.0
20260506030001 74 312 10.4 13.9 0.00 0.00 0.00 34 995.8
20260506024605 75 309 10.4 13.9 0.00 0.00 0.00 33 995.6
20260506023109 76 319 10.4 13.0 0.00 0.00 0.00 32 995.5
20260506021617 77 329 7.8 10.4 0.00 0.00 0.00 30 995.5
20260506020057 78 319 2.6 5.2 0.00 0.00 0.00 28 995.4
20260506014504 79 324 3.5 7.8 0.00 0.00 0.00 27 995.2
20260506013003 80 334 1.7 3.5 0.00 0.00 0.00 26 995.1
20260506011503 80 195 2.6 7.8 0.00 0.00 0.00 25 994.8
20260506010003 80 186 6.1 7.0 0.00 0.00 0.00 26 994.8
20260506004553 80 182 7.8 8.7 0.00 0.00 0.00 25 994.9
20260506003054 81 209 7.0 12.2 0.00 0.00 0.00 25 994.8
20260506001554 81 223 8.7 13.9 0.00 0.00 0.00 25 994.8
20260506000050 81 221 8.7 15.6 0.00 0.00 0.00 24 994.8
20260505234559 81 208 4.3 9.6 0.00 0.00 0.00 25 995.0
20260505233104 80 280 6.1 12.2 0.00 0.00 0.00 25 995.1
20260505231611 80 259 13.9 17.4 0.00 0.00 0.00 25 995.3
20260505230055 79 232 8.7 13.0 0.00 0.00 0.00 25 995.4
20260505224544 79 259 12.2 19.1 0.00 0.00 0.00 26 995.6
20260505223043 79 250 12.2 17.4 0.00 0.00 0.00 26 996.0
20260505221545 78 267 16.5 21.7 0.00 0.00 0.00 26 995.9
20260505220045 77 266 17.4 22.6 0.00 0.00 0.00 26 996.1
20260505214556 77 288 13.9 22.6 0.00 0.00 0.00 26 996.5
20260505213047 77 261 19.1 26.9 0.00 0.00 0.00 25 996.6
20260505211546 77 292 21.7 28.7 0.00 0.00 0.00 25 996.9
20260505210047 78 284 23.5 27.8 0.00 0.00 0.00 24 996.7
20260505204556 79 279 17.4 25.2 0.00 0.00 0.00 24 997.0
20260505203114 79 280 18.2 28.7 0.00 0.00 0.00 24 997.0
20260505201600 79 270 15.6 26.9 0.00 0.00 0.00 26 996.9
20260505200054 78 279 18.2 25.2 0.00 0.00 0.00 26 997.0
20260505194557 78 271 18.2 23.5 0.00 0.00 0.00 27 997.2
20260505193056 77 288 17.4 25.2 0.00 0.00 0.00 28 997.1
20260505191608 77 290 19.1 24.3 0.00 0.00 0.00 27 997.1
20260505190053 76 252 18.2 23.5 0.00 0.00 0.00 30 997.2